Regional Weather Roundup
Issued by NWS

Home | Current Version | Previous Version | Graphics & Text | Print | Product List | Glossary On
Versions: 1 2 3 4 5 6 7 8 9 10 11 12 13 14 15 16 17 18 19 20 21 22 23 24 25 26 27 28 29 30 31 32 33 34 35 36 37 38 39 40 41 42 43 44 45 46 47 48 49 50
000
ASUS43 KOAX 290902
RWRNE

WEATHER ROUNDUP FOR NEBRASKA
NATIONAL WEATHER SERVICE OMAHA NE
300 AM CST THU JAN 29 2015

NOTES: SATELLITE DATA IS BEING USED TO AUGMENT CLOUD COVER ABOVE
       12000 FEET.
       "FAIR" INDICATES FEW OR NO CLOUDS BELOW 12,000 FEET WITH NO
       SIGNIFICANT WEATHER AND/OR OBSTRUCTIONS TO VISIBILITY.

  * THESE STATIONS DO NOT REPORT WEATHER SUCH AS RAIN...SNOW OR FOG.

NEZ001>004-019>022-054>056-291000-
NEBRASKA PANHANDLE

CITY           SKY/WX    TMP DP  RH WIND       PRES   REMARKS
SCOTTSBLUFF    PTCLDY    35  25  66 NW13      30.36R WCI  26
ALLIANCE       CLEAR     26  24  92 NW8       30.36R WCI  18
CHADRON        PTCLDY    24  22  91 SW6       30.40R WCI  17
SIDNEY         PTCLDY    30  26  85 N9        30.36R WCI  22
$$

NEZ057>060-069>072-079>082-291000-
SOUTHWEST NEBRASKA

CITY           SKY/WX    TMP DP  RH WIND       PRES   REMARKS
NORTH PLATTE   CLEAR     33  26  75 N13       30.30R WCI  24
IMPERIAL         N/A     31  25  78 MISG      30.33R
MCCOOK         CLEAR     37  28  70 N20       30.30R WCI  27
$$

NEZ005>010-023>029-035>040-094-291000-
NORTH CENTRAL NEBRASKA

CITY           SKY/WX    TMP DP  RH WIND       PRES   REMARKS
VALENTINE      CLOUDY    35  26  69 NW21G32   30.30R WCI  24
BROKEN BOW     CLOUDY    37  26  64 N29G47    30.25R WCI  25
ORD            CLOUDY    36  28  73 N21G32    30.22R WCI  25
$$

NEZ041-046>049-061>064-073>077-083>087-291000-
SOUTH CENTRAL NEBRASKA

CITY           SKY/WX    TMP DP  RH WIND       PRES   REMARKS
GRAND ISLAND   CLOUDY    37  29  72 NW25G33   30.22R WCI  25
AURORA         CLOUDY    37  30  75 NW24G36   30.19R WCI  26
HASTINGS       CLOUDY    38  29  70 N24G32    30.22R WCI  27
KEARNEY *      MOCLDY    37  27  65 N24G30    30.24R WCI  26
$$

NEZ011>018-030>034-042>045-291000-
NORTHEAST NEBRASKA

CITY           SKY/WX    TMP DP  RH WIND       PRES   REMARKS
NORFOLK        CLOUDY    37  30  75 NW23G32   30.16R WCI  26
ALBION         CLOUDY    37  29  73 NW22G32   30.19R WCI  26
BLAIR          CLOUDY    36  29  77 NW30G40   30.09R WCI  23
COLUMBUS *     CLOUDY    36  25  64 NW22G30   30.17R WCI  24
FREMONT        CLOUDY    37  29  75 NW17G28   30.16R WCI  27
TEKAMAH        CLOUDY    36  29  75 NW31G43   30.11R WCI  23
$$

NEZ050>053-065>068-078-088>093-291000-
SOUTHEAST NEBRASKA

CITY           SKY/WX    TMP DP  RH WIND       PRES   REMARKS
LINCOLN        CLOUDY    38  29  70 NW22G32   30.16R WCI  27
OMAHA EPPLEY   DRIZZLE   37  29  72 NW26G32   30.08R WCI  25
FALLS CITY     CLOUDY    39  31  72 NW28G37   30.09R WCI  28
$$

NEZ044-045-051>053-067-291000-
OMAHA AREA

CITY           SKY/WX    TMP DP  RH WIND       PRES   REMARKS
OMAHA EPPLEY   DRIZZLE   37  29  72 NW26G32   30.08R WCI  25
BLAIR          CLOUDY    36  29  77 NW30G40   30.09R WCI  23
FREMONT        CLOUDY    37  29  75 NW17G28   30.16R WCI  27
OFFUTT AFB     LGT RAIN  36  31  83 NW21G30   30.09R WCI  25
$$



USA.gov is the U.S. government's official web portal to all federal, state and local government web resources and services.